,,,PA_Meas_PMT16A,,PR_Meas_QMR101_102,,RH_Meas_QMH101,,SR_Meas_QMS101,,TA_Meas_QMH101,,GenWind,,GenWind,
date,time,status,PA,status,PR,status,RH,status,SR,status,TA,status,DirAvg,status,SpdAvg,
2008-10-17, 00:00:05,VALID,1002.47,VALID,0,VALID,92.5841,VALID,0,VALID,24.4433,VALID,53,VALID,0.271875,
2008-10-17, 00:01:05,VALID,1002.42,VALID,0,VALID,92.4773,VALID,0,VALID,24.4628,VALID,54,VALID,0.248437,
2008-10-17, 00:02:05,VALID,1002.42,VALID,0,VALID,92.6451,VALID,0,VALID,24.4822,VALID,59,VALID,0.571484,
2008-10-17, 00:03:05,VALID,1002.37,VALID,0,VALID,92.5612,VALID,0,VALID,24.5406,VALID,73,VALID,0.729297,
2008-10-17, 00:04:05,VALID,1002.33,VALID,0,VALID,92.3476,VALID,0,VALID,24.5796,VALID,60,VALID,0.229687,
2008-10-17, 00:05:05,VALID,1002.34,VALID,0,VALID,92.1187,VALID,0,VALID,24.5406,VALID,60,VALID,0.378516,
2008-10-17, 00:06:05,VALID,1002.34,VALID,0,VALID,92.1111,VALID,0.100563,VALID,24.5017,VALID,60,VALID,0.205078,
2008-10-17, 00:07:05,VALID,1002.31,VALID,0,VALID,92.0806,VALID,0,VALID,24.4822,VALID,54,VALID,0.421484,
2008-10-17, 00:08:05,VALID,1002.28,VALID,0,VALID,92.0806,VALID,0,VALID,24.4238,VALID,50,VALID,0.44375,
2008-10-17, 00:09:05,VALID,1002.28,VALID,0,VALID,92.2866,VALID,0,VALID,24.383,VALID,50,VALID,0.471094,
2008-10-17, 00:10:05,VALID,1002.25,VALID,0,VALID,92.2866,VALID,0.100563,VALID,24.3849,VALID,50,VALID,0.441016,
2008-10-17, 00:11:05,VALID,1002.23,VALID,0,VALID,92.4315,VALID,0,VALID,24.3654,VALID,48,VALID,0.65,
2008-10-17, 00:12:05,VALID,1002.18,VALID,0,VALID,92.5154,VALID,0,VALID,24.3459,VALID,43,VALID,0.432422,
2008-10-17, 00:13:05,VALID,1002.17,VALID,0,VALID,92.7443,VALID,0,VALID,24.3654,VALID,41,VALID,0.3,
2008-10-17, 00:14:05,VALID,1002.14,VALID,0,VALID,92.8664,VALID,0,VALID,24.3849,VALID,30,VALID,0.408594,
2008-10-17, 00:15:05,VALID,1002.16,VALID,0,VALID,92.8511,VALID,0.100563,VALID,24.4628,VALID,34,VALID,0.765625,
2008-10-17, 00:16:05,VALID,1002.16,VALID,0,VALID,92.5536,VALID,0,VALID,24.5017,VALID,32,VALID,0.307031,
2008-10-17, 00:17:05,VALID,1002.16,VALID,0,VALID,92.3934,VALID,0,VALID,24.5406,VALID,21,VALID,0.351172,
2008-10-17, 00:18:05,VALID,1002.21,VALID,0,VALID,92.2561,VALID,0,VALID,24.5796,VALID,17,VALID,0.447656,
2008-10-17, 00:19:05,VALID,1002.21,VALID,0,VALID,92.1264,VALID,0,VALID,24.6185,VALID,17,VALID,0,
2008-10-17, 00:20:05,VALID,1002.2,VALID,0,VALID,91.9204,VALID,0,VALID,24.6574,VALID,17,VALID,0.587109,
2008-10-17, 00:21:05,VALID,1002.21,VALID,0,VALID,91.6991,VALID,0,VALID,24.7159,VALID,15,VALID,0.315234,
2008-10-17, 00:22:05,VALID,1002.25,VALID,0,VALID,91.5084,VALID,0,VALID,24.7159,VALID,15,VALID,0.50625,
2008-10-17, 00:23:05,VALID,1002.27,VALID,0,VALID,91.3864,VALID,0,VALID,24.7548,VALID,13,VALID,0.53125,
2008-10-17, 00:24:05,VALID,1002.26,VALID,0,VALID,91.0736,VALID,0,VALID,24.7743,VALID,35,VALID,0.659766,
2008-10-17, 00:25:05,VALID,1002.28,VALID,0,VALID,90.8981,VALID,0,VALID,24.8151,VALID,20,VALID,0.423047,
2008-10-17, 00:26:05,VALID,1002.27,VALID,0,VALID,90.9134,VALID,0,VALID,24.8132,VALID,8,VALID,0.509375,
2008-10-17, 00:27:05,VALID,1002.27,VALID,0,VALID,90.7608,VALID,0,VALID,24.8308,VALID,8,VALID,0.546094,
2008-10-17, 00:28:05,VALID,1002.26,VALID,0,VALID,90.6158,VALID,0,VALID,24.8911,VALID,24,VALID,1.04844,
2008-10-17, 00:29:04,VALID,1002.21,VALID,0,VALID,90.3488,VALID,0.100563,VALID,24.9495,VALID,20,VALID,0.398828,
2008-10-17, 00:30:04,VALID,1002.19,VALID,0,VALID,90.1352,VALID,0,VALID,24.9904,VALID,358,VALID,0.496484,
2008-10-17, 00:31:04,VALID,1002.2,VALID,0,VALID,90.1352,VALID,0,VALID,24.9495,VALID,358,VALID,0.491016,
2008-10-17, 00:32:04,VALID,1002.17,VALID,0,VALID,90.2802,VALID,0,VALID,24.9495,VALID,358,VALID,0.485156,
2008-10-17, 00:33:04,VALID,1002.18,VALID,0,VALID,90.4175,VALID,0,VALID,24.8911,VALID,358,VALID,0.342578,
2008-10-17, 00:34:04,VALID,1002.15,VALID,0,VALID,90.5777,VALID,0,VALID,24.8132,VALID,358,VALID,0.367969,
2008-10-17, 00:35:04,VALID,1002.13,VALID,0,VALID,90.8523,VALID,0,VALID,24.7937,VALID,358,VALID,0.537109,
2008-10-17, 00:36:04,VALID,1002.12,VALID,0,VALID,90.9744,VALID,0,VALID,24.7743,VALID,358,VALID,0.362109,
2008-10-17, 00:37:04,VALID,1002.12,VALID,0,VALID,90.7989,VALID,0,VALID,24.7743,VALID,1,VALID,0.774219,
2008-10-17, 00:38:04,VALID,1002.07,VALID,0,VALID,90.776,VALID,0,VALID,24.8716,VALID,11,VALID,0.221094,
2008-10-17, 00:39:04,VALID,1002.06,VALID,0,VALID,90.6158,VALID,0,VALID,24.8911,VALID,11,VALID,0.180859,
2008-10-17, 00:40:04,VALID,1002.05,VALID,0,VALID,90.6082,VALID,0,VALID,24.8308,VALID,11,VALID,0.197656,
2008-10-17, 00:41:04,VALID,1002.06,VALID,0,VALID,90.8447,VALID,0,VALID,24.8327,VALID,11,VALID,0,
2008-10-17, 00:42:04,VALID,1002.01,VALID,0,VALID,90.9591,VALID,0,VALID,24.7937,VALID,12,VALID,0.282422,
2008-10-17, 00:43:04,VALID,1002.03,VALID,0,VALID,91.0278,VALID,0,VALID,24.7353,VALID,12,VALID,0.193359,
2008-10-17, 00:44:04,VALID,1002,VALID,0,VALID,91.1422,VALID,0,VALID,24.6769,VALID,17,VALID,0.202734,
2008-10-17, 00:45:04,VALID,1002.01,VALID,0,VALID,91.3253,VALID,0,VALID,24.6166,VALID,34,VALID,0.467969,
2008-10-17, 00:46:04,VALID,1002,VALID,0,VALID,91.4169,VALID,0,VALID,24.599,VALID,54,VALID,0.270312,
2008-10-17, 00:47:04,VALID,1001.99,VALID,0,VALID,91.5695,VALID,0,VALID,24.5601,VALID,90,VALID,0.6375,
2008-10-17, 00:48:04,VALID,1001.99,VALID,0,VALID,91.7907,VALID,0,VALID,24.5406,VALID,90,VALID,0.39375,
2008-10-17, 00:49:04,VALID,1001.97,VALID,0,VALID,91.9662,VALID,0,VALID,24.5017,VALID,90,VALID,0.282031,
2008-10-17, 00:50:04,VALID,1001.98,VALID,0,VALID,92.0882,VALID,0,VALID,24.5035,VALID,90,VALID,0.363281,
2008-10-17, 00:51:04,VALID,1001.99,VALID,0,VALID,92.1569,VALID,0,VALID,24.4628,VALID,90,VALID,0.458594,
2008-10-17, 00:52:04,VALID,1001.96,VALID,0,VALID,92.2484,VALID,0,VALID,24.4238,VALID,86,VALID,0.433594,
2008-10-17, 00:53:04,VALID,1001.98,VALID,0,VALID,92.3705,VALID,0,VALID,24.4043,VALID,86,VALID,0.325391,
2008-10-17, 00:54:04,VALID,1001.96,VALID,0,VALID,92.4925,VALID,0,VALID,24.3673,VALID,58,VALID,0.361328,
2008-10-17, 00:55:04,VALID,1001.99,VALID,0,VALID,92.5993,VALID,0,VALID,24.3673,VALID,58,VALID,0.294922,
2008-10-17, 00:56:04,VALID,1001.98,VALID,0,VALID,92.7443,VALID,0,VALID,24.3478,VALID,58,VALID,0.418359,
2008-10-17, 00:57:04,VALID,1002,VALID,0,VALID,92.8511,VALID,0,VALID,24.2875,VALID,58,VALID,0.291797,
2008-10-17, 00:58:04,VALID,1002.02,VALID,0,VALID,92.935,VALID,0,VALID,24.3283,VALID,58,VALID,0.0363281,
2008-10-17, 00:59:04,VALID,1002.04,VALID,0,VALID,93.0113,VALID,0,VALID,24.2894,VALID,58,VALID,0,
2008-10-17, 01:00:04,VALID,1002.03,VALID,0,VALID,93.0647,VALID,0,VALID,24.2894,VALID,58,VALID,0,
2008-10-17, 01:01:04,VALID,1002.02,VALID,0,VALID,93.1257,VALID,0,VALID,24.2894,VALID,58,VALID,0,
2008-10-17, 01:02:04,VALID,1002.04,VALID,0,VALID,93.202,VALID,0,VALID,24.2894,VALID,58,VALID,0,
2008-10-17, 01:03:04,VALID,1002.01,VALID,0,VALID,93.2554,VALID,0,VALID,24.2894,VALID,58,VALID,0,
2008-10-17, 01:04:04,VALID,1002.02,VALID,0,VALID,93.3012,VALID,0,VALID,24.2894,VALID,58,VALID,0,
2008-10-17, 01:05:04,VALID,1002.01,VALID,0,VALID,93.2936,VALID,0,VALID,24.2894,VALID,58,VALID,0.382813,
2008-10-17, 01:06:04,VALID,1002.01,VALID,0,VALID,93.3317,VALID,0,VALID,24.2681,VALID,58,VALID,0.262891,
2008-10-17, 01:07:04,VALID,1001.99,VALID,0,VALID,93.3851,VALID,0,VALID,24.2681,VALID,57,VALID,0.485938,
2008-10-17, 01:08:04,VALID,1001.94,VALID,0,VALID,93.408,VALID,0,VALID,24.2894,VALID,57,VALID,0.450391,
2008-10-17, 01:09:04,VALID,1001.92,VALID,0,VALID,93.4004,VALID,0,VALID,24.2894,VALID,57,VALID,0.512891,
2008-10-17, 01:10:04,VALID,1001.91,VALID,0,VALID,93.4233,VALID,0,VALID,24.2894,VALID,57,VALID,0.430859,
2008-10-17, 01:11:04,VALID,1001.88,VALID,0,VALID,93.4309,VALID,0,VALID,24.2681,VALID,57,VALID,0.549609,
2008-10-17, 01:12:04,VALID,1001.85,VALID,0,VALID,93.4156,VALID,0,VALID,24.3088,VALID,57,VALID,0.552344,
2008-10-17, 01:13:04,VALID,1001.8,VALID,0,VALID,93.4156,VALID,0,VALID,24.2894,VALID,57,VALID,0.114453,
2008-10-17, 01:14:04,VALID,1001.8,VALID,0,VALID,93.4309,VALID,0,VALID,24.2486,VALID,57,VALID,0.000390625,
2008-10-17, 01:15:04,VALID,1001.77,VALID,0,VALID,93.4767,VALID,0,VALID,24.2699,VALID,52,VALID,0.130469,
2008-10-17, 01:16:04,VALID,1001.77,VALID,0,VALID,93.5148,VALID,0,VALID,24.2699,VALID,41,VALID,0.0714844,
2008-10-17, 01:17:04,VALID,1001.75,VALID,0,VALID,93.5453,VALID,0,VALID,24.2699,VALID,41,VALID,0.028125,
2008-10-17, 01:18:04,VALID,1001.73,VALID,0,VALID,93.5758,VALID,0,VALID,24.2699,VALID,41,VALID,0.319922,
2008-10-17, 01:19:04,VALID,1001.72,VALID,0,VALID,93.5606,VALID,0,VALID,24.2504,VALID,41,VALID,0.0695312,
2008-10-17, 01:20:04,VALID,1001.73,VALID,0,VALID,93.6216,VALID,0,VALID,24.2504,VALID,41,VALID,0.200781,
2008-10-17, 01:21:04,VALID,1001.71,VALID,0,VALID,93.5987,VALID,0,VALID,24.2504,VALID,41,VALID,0.453516,
2008-10-17, 01:22:04,VALID,1001.71,VALID,0,VALID,93.6369,VALID,0,VALID,24.2699,VALID,22,VALID,0.351172,
2008-10-17, 01:23:04,VALID,1001.73,VALID,0,VALID,93.6521,VALID,0,VALID,24.2681,VALID,22,VALID,0.0195313,
2008-10-17, 01:24:04,VALID,1001.68,VALID,0,VALID,93.6445,VALID,0,VALID,24.2894,VALID,22,VALID,0,
2008-10-17, 01:25:04,VALID,1001.67,VALID,0,VALID,93.5987,VALID,0,VALID,24.3088,VALID,22,VALID,0,
2008-10-17, 01:26:04,VALID,1001.68,VALID,0,VALID,93.5758,VALID,0,VALID,24.2681,VALID,22,VALID,0,
2008-10-17, 01:27:04,VALID,1001.68,VALID,0,VALID,93.5606,VALID,0,VALID,24.2894,VALID,22,VALID,0,
2008-10-17, 01:28:04,VALID,1001.66,VALID,0,VALID,93.5072,VALID,0,VALID,24.2894,VALID,22,VALID,0,
2008-10-17, 01:29:04,VALID,1001.64,VALID,0,VALID,93.4919,VALID,0,VALID,24.2875,VALID,22,VALID,0,
2008-10-17, 01:30:04,VALID,1001.63,VALID,0,VALID,93.5148,VALID,0,VALID,24.2681,VALID,22,VALID,0,
2008-10-17, 01:31:04,VALID,1001.62,VALID,0,VALID,93.4767,VALID,0,VALID,24.2486,VALID,35,VALID,0.305859,
2008-10-17, 01:32:04,VALID,1001.57,VALID,0,VALID,93.4614,VALID,0,VALID,24.2486,VALID,32,VALID,0.330078,
2008-10-17, 01:33:04,VALID,1001.58,VALID,0,VALID,93.4538,VALID,0,VALID,24.2699,VALID,40,VALID,0.485547,
2008-10-17, 01:34:04,VALID,1001.58,VALID,0,VALID,93.4233,VALID,0,VALID,24.2699,VALID,47,VALID,0.276563,
2008-10-17, 01:35:04,VALID,1001.57,VALID,0,VALID,93.3851,VALID,0,VALID,24.2681,VALID,47,VALID,0.270703,
2008-10-17, 01:36:04,VALID,1001.56,VALID,0,VALID,93.3394,VALID,0,VALID,24.2486,VALID,41,VALID,0.665234,
2008-10-17, 01:37:04,VALID,1001.55,VALID,0,VALID,93.3317,VALID,0,VALID,24.2486,VALID,38,VALID,0.435547,
2008-10-17, 01:38:04,VALID,1001.54,VALID,0,VALID,93.2783,VALID,0,VALID,24.2699,VALID,42,VALID,0.622656,
2008-10-17, 01:39:04,VALID,1001.57,VALID,0,VALID,93.2707,VALID,0,VALID,24.2699,VALID,42,VALID,0.418359,
2008-10-17, 01:40:04,VALID,1001.56,VALID,0,VALID,93.2707,VALID,0,VALID,24.2894,VALID,42,VALID,0.356641,
2008-10-17, 01:41:04,VALID,1001.58,VALID,0,VALID,93.3012,VALID,0,VALID,24.2681,VALID,42,VALID,0.405469,
2008-10-17, 01:42:04,VALID,1001.56,VALID,0,VALID,93.3165,VALID,0,VALID,24.3088,VALID,12,VALID,0.444922,
2008-10-17, 01:43:04,VALID,1001.58,VALID,0,VALID,93.2325,VALID,0,VALID,24.307,VALID,12,VALID,0.130859,
2008-10-17, 01:44:04,VALID,1001.63,VALID,0,VALID,93.141,VALID,0,VALID,24.3478,VALID,12,VALID,0,
2008-10-17, 01:45:04,VALID,1001.63,VALID,0,VALID,93.1029,VALID,0,VALID,24.3265,VALID,12,VALID,0,
2008-10-17, 01:46:04,VALID,1001.64,VALID,0,VALID,93.0495,VALID,0,VALID,24.3478,VALID,12,VALID,0,
2008-10-17, 01:47:04,VALID,1001.61,VALID,0,VALID,92.9732,VALID,0,VALID,24.307,VALID,13,VALID,0.289844,
2008-10-17, 01:48:04,VALID,1001.63,VALID,0,VALID,92.9655,VALID,0,VALID,24.3283,VALID,13,VALID,0.353906,
2008-10-17, 01:49:04,VALID,1001.62,VALID,0,VALID,92.9198,VALID,0,VALID,24.3283,VALID,14,VALID,0.471094,
2008-10-17, 01:50:04,VALID,1001.61,VALID,0,VALID,92.9274,VALID,0,VALID,24.2875,VALID,17,VALID,0.514844,
2008-10-17, 01:51:04,VALID,1001.6,VALID,0,VALID,92.9121,VALID,0,VALID,24.2681,VALID,23,VALID,0.638672,
2008-10-17, 01:52:04,VALID,1001.57,VALID,0,VALID,92.9961,VALID,0,VALID,24.2894,VALID,29,VALID,0.480859,
2008-10-17, 01:53:04,VALID,1001.55,VALID,0,VALID,93.1563,VALID,0,VALID,24.2699,VALID,22,VALID,0.418359,
2008-10-17, 01:54:04,VALID,1001.53,VALID,0,VALID,93.2631,VALID,0,VALID,24.2699,VALID,22,VALID,0.515234,
2008-10-17, 01:55:04,VALID,1001.52,VALID,0,VALID,93.347,VALID,0,VALID,24.2699,VALID,22,VALID,0.782812,
2008-10-17, 01:56:04,VALID,1001.5,VALID,0,VALID,93.3851,VALID,0,VALID,24.2894,VALID,22,VALID,0.510547,
2008-10-17, 01:57:04,VALID,1001.52,VALID,0,VALID,93.4004,VALID,0,VALID,24.2875,VALID,20,VALID,0.285156,
2008-10-17, 01:58:04,VALID,1001.5,VALID,0,VALID,93.4156,VALID,0,VALID,24.3283,VALID,20,VALID,0.0941406,
2008-10-17, 01:59:04,VALID,1001.49,VALID,0,VALID,93.3394,VALID,0,VALID,24.2894,VALID,20,VALID,0.158203,
2008-10-17, 02:00:04,VALID,1001.5,VALID,0,VALID,93.4156,VALID,0,VALID,24.2875,VALID,358,VALID,0.512109,
2008-10-17, 02:01:04,VALID,1001.5,VALID,0,VALID,93.347,VALID,0,VALID,24.3459,VALID,360,VALID,0.426953,
2008-10-17, 02:02:04,VALID,1001.49,VALID,0,VALID,93.2936,VALID,0,VALID,24.3673,VALID,12,VALID,0.822656,
2008-10-17, 02:03:04,VALID,1001.47,VALID,0,VALID,93.1791,VALID,0,VALID,24.4451,VALID,22,VALID,0.737891,
2008-10-17, 02:04:04,VALID,1001.48,VALID,0,VALID,92.9274,VALID,0,VALID,24.5035,VALID,10,VALID,0.690625,
2008-10-17, 02:05:04,VALID,1001.47,VALID,0,VALID,92.6985,VALID,0,VALID,24.5601,VALID,13,VALID,0.739844,
2008-10-17, 02:06:04,VALID,1001.45,VALID,0,VALID,92.4239,VALID,0,VALID,24.599,VALID,18,VALID,0,
2008-10-17, 02:07:04,VALID,1001.46,VALID,0,VALID,92.0119,VALID,0,VALID,24.6769,VALID,17,VALID,0.554688,
2008-10-17, 02:08:04,VALID,1001.48,VALID,0,VALID,91.6686,VALID,0,VALID,24.7567,VALID,16,VALID,0.286328,
2008-10-17, 02:09:04,VALID,1001.52,VALID,0,VALID,91.333,VALID,0,VALID,24.7937,VALID,16,VALID,0.483984,
2008-10-17, 02:10:04,VALID,1001.53,VALID,0,VALID,91.1346,VALID,0,VALID,24.8735,VALID,14,VALID,0.616406,
2008-10-17, 02:11:04,VALID,1001.52,VALID,0,VALID,90.8752,VALID,0,VALID,24.8716,VALID,13,VALID,0.321484,
2008-10-17, 02:12:04,VALID,1001.56,VALID,0,VALID,90.5243,VALID,0,VALID,24.9319,VALID,336,VALID,0.523828,
2008-10-17, 02:13:04,VALID,1001.57,VALID,0,VALID,90.12,VALID,0,VALID,25.0274,VALID,340,VALID,0.725391,
2008-10-17, 02:14:04,VALID,1001.61,VALID,0,VALID,89.9292,VALID,0,VALID,25.0858,VALID,10,VALID,0.263281,
2008-10-17, 02:15:04,VALID,1001.61,VALID,0,VALID,90.0055,VALID,0,VALID,25.1248,VALID,10,VALID,0.314063,
2008-10-17, 02:16:04,VALID,1001.61,VALID,0,VALID,90.0513,VALID,0,VALID,25.1072,VALID,10,VALID,0.167969,
2008-10-17, 02:17:04,VALID,1001.6,VALID,0,VALID,89.853,VALID,0,VALID,25.0877,VALID,11,VALID,0.482422,
2008-10-17, 02:18:04,VALID,1001.61,VALID,0,VALID,89.9064,VALID,0,VALID,25.0877,VALID,14,VALID,0.653516,
2008-10-17, 02:19:04,VALID,1001.63,VALID,0,VALID,89.8377,VALID,0,VALID,25.0682,VALID,31,VALID,1.0457,
2008-10-17, 02:20:04,VALID,1001.67,VALID,0,VALID,90.1352,VALID,0,VALID,25.0469,VALID,353,VALID,1.17813,
2008-10-17, 02:21:04,VALID,1001.65,VALID,0,VALID,89.8377,VALID,0,VALID,25.0274,VALID,352,VALID,1.89688,
2008-10-17, 02:22:04,VALID,1001.65,VALID,0,VALID,89.8606,VALID,0,VALID,25.0488,VALID,352,VALID,1.29883,
2008-10-17, 02:23:04,VALID,1001.64,VALID,0,VALID,89.7843,VALID,0,VALID,25.0488,VALID,353,VALID,1.68398,
2008-10-17, 02:24:04,VALID,1001.64,VALID,0,VALID,89.5173,VALID,0.100563,VALID,25.0469,VALID,21,VALID,1.90391,
2008-10-17, 02:25:04,VALID,1001.65,VALID,0,VALID,89.2503,VALID,0,VALID,25.0663,VALID,11,VALID,2.05156,
2008-10-17, 02:26:04,VALID,1001.66,VALID,0,VALID,88.9985,VALID,0,VALID,25.0663,VALID,21,VALID,1.47734,
2008-10-17, 02:27:04,VALID,1001.67,VALID,0,VALID,88.9604,VALID,0,VALID,25.1286,VALID,14,VALID,1.23359,
2008-10-17, 02:28:04,VALID,1001.68,VALID,0,VALID,88.6094,VALID,0,VALID,25.0682,VALID,3,VALID,1.5918,
2008-10-17, 02:29:04,VALID,1001.66,VALID,0,VALID,87.9991,VALID,0,VALID,25.0682,VALID,25,VALID,1.81055,
2008-10-17, 02:30:04,VALID,1001.68,VALID,0,VALID,87.9686,VALID,0,VALID,25.0663,VALID,353,VALID,1.13555,
2008-10-17, 02:31:04,VALID,1001.65,VALID,0,VALID,88.0144,VALID,0,VALID,25.0877,VALID,356,VALID,1.26055,
2008-10-17, 02:32:04,VALID,1001.62,VALID,0,VALID,87.9381,VALID,0,VALID,25.0274,VALID,353,VALID,1.15937,
2008-10-17, 02:33:04,VALID,1001.62,VALID,0,VALID,87.7016,VALID,0,VALID,25.0079,VALID,359,VALID,1.85664,
2008-10-17, 02:34:04,VALID,1001.58,VALID,0,VALID,87.8847,VALID,0,VALID,25.0098,VALID,352,VALID,0.909766,
2008-10-17, 02:35:04,VALID,1001.54,VALID,0,VALID,87.5872,VALID,0,VALID,24.9709,VALID,10,VALID,1.5625,
2008-10-17, 02:36:04,VALID,1001.5,VALID,0,VALID,87.6253,VALID,0,VALID,24.9514,VALID,353,VALID,1.51328,
2008-10-17, 02:37:04,VALID,1001.45,VALID,0,VALID,87.6711,VALID,0,VALID,24.9319,VALID,351,VALID,1.12188,
2008-10-17, 02:38:04,VALID,1001.47,VALID,0,VALID,87.4727,VALID,0,VALID,24.893,VALID,360,VALID,1.53633,
2008-10-17, 02:39:04,VALID,1001.46,VALID,0,VALID,87.6558,VALID,0.100563,VALID,24.8716,VALID,350,VALID,1.30313,
2008-10-17, 02:40:04,VALID,1001.47,VALID,0,VALID,87.7932,VALID,0.100563,VALID,24.854,VALID,4,VALID,1.28477,
2008-10-17, 02:41:04,VALID,1001.43,VALID,0,VALID,87.6711,VALID,0,VALID,24.7724,VALID,352,VALID,1.0457,
2008-10-17, 02:42:04,VALID,1001.43,VALID,0,VALID,87.8084,VALID,0.100563,VALID,24.7743,VALID,356,VALID,1.13828,
2008-10-17, 02:43:04,VALID,1001.49,VALID,0,VALID,87.9076,VALID,0,VALID,24.7159,VALID,351,VALID,1.33242,
2008-10-17, 02:44:04,VALID,1001.48,VALID,0,VALID,88.1288,VALID,0.100563,VALID,24.6556,VALID,349,VALID,0.994141,
2008-10-17, 02:45:04,VALID,1001.47,VALID,0,VALID,88.1593,VALID,0,VALID,24.6574,VALID,351,VALID,0.801562,
2008-10-17, 02:46:04,VALID,1001.5,VALID,0,VALID,88.0907,VALID,0.100563,VALID,24.638,VALID,12,VALID,1.75977,
2008-10-17, 02:47:04,VALID,1001.48,VALID,0,VALID,88.2127,VALID,0,VALID,24.6185,VALID,353,VALID,1.23789,
2008-10-17, 02:48:04,VALID,1001.5,VALID,0,VALID,88.2433,VALID,0.100563,VALID,24.6185,VALID,2,VALID,1.15937,
2008-10-17, 02:49:04,VALID,1001.46,VALID,0,VALID,87.8771,VALID,0,VALID,24.6185,VALID,354,VALID,1.48438,
2008-10-17, 02:50:04,VALID,1001.49,VALID,0,VALID,87.9915,VALID,0.100563,VALID,24.6185,VALID,1,VALID,0.872266,
2008-10-17, 02:51:04,VALID,1001.47,VALID,0,VALID,88.0296,VALID,0,VALID,24.6185,VALID,40,VALID,0.749609,
2008-10-17, 02:52:04,VALID,1001.46,VALID,0,VALID,87.3965,VALID,0,VALID,24.599,VALID,4,VALID,1.40625,
2008-10-17, 02:53:04,VALID,1001.45,VALID,0,VALID,87.6024,VALID,0,VALID,24.5972,VALID,14,VALID,0.936328,
2008-10-17, 02:54:04,VALID,1001.45,VALID,0,VALID,87.2515,VALID,0,VALID,24.6185,VALID,39,VALID,1.35273,
2008-10-17, 02:55:04,VALID,1001.46,VALID,0,VALID,86.1911,VALID,0,VALID,24.6574,VALID,52,VALID,2.09844,
2008-10-17, 02:56:04,VALID,1001.45,VALID,0,VALID,85.7791,VALID,0,VALID,24.7353,VALID,6,VALID,2.01211,
2008-10-17, 02:57:04,VALID,1001.44,VALID,0,VALID,85.4892,VALID,0,VALID,24.7724,VALID,352,VALID,1.36992,
2008-10-17, 02:58:04,VALID,1001.44,VALID,0,VALID,84.6653,VALID,0.100563,VALID,24.8308,VALID,18,VALID,2.23242,
2008-10-17, 02:59:04,VALID,1001.49,VALID,0,VALID,84.8103,VALID,0,VALID,24.8911,VALID,12,VALID,1.04102,
2008-10-17, 03:00:04,VALID,1001.49,VALID,0,VALID,84.8026,VALID,0,VALID,24.8892,VALID,28,VALID,1.3293,
2008-10-17, 03:01:04,VALID,1001.52,VALID,0,VALID,84.8713,VALID,0,VALID,24.8911,VALID,18,VALID,0.737109,
2008-10-17, 03:02:04,VALID,1001.5,VALID,0,VALID,84.6043,VALID,0,VALID,24.8697,VALID,37,VALID,1.05547,
2008-10-17, 03:03:04,VALID,1001.49,VALID,0,VALID,84.4822,VALID,0,VALID,24.9106,VALID,31,VALID,1.1375,
2008-10-17, 03:04:04,VALID,1001.48,VALID,0,VALID,83.9635,VALID,0.100563,VALID,25.0274,VALID,17,VALID,1.29805,
2008-10-17, 03:05:04,VALID,1001.49,VALID,0,VALID,83.3074,VALID,0.100563,VALID,25.1053,VALID,29,VALID,1.28359,
2008-10-17, 03:06:04,VALID,1001.49,VALID,0,VALID,83.3531,VALID,0.100563,VALID,25.1637,VALID,23,VALID,1.21484,
2008-10-17, 03:07:04,VALID,1001.5,VALID,0,VALID,82.5521,VALID,0,VALID,25.2027,VALID,25,VALID,1.14141,
2008-10-17, 03:08:04,VALID,1001.52,VALID,0,VALID,82.3156,VALID,0,VALID,25.2806,VALID,41,VALID,1.7582,
2008-10-17, 03:09:04,VALID,1001.51,VALID,0,VALID,82.2317,VALID,0,VALID,25.3195,VALID,21,VALID,0.951953,
2008-10-17, 03:10:04,VALID,1001.47,VALID,0,VALID,82.1325,VALID,0,VALID,25.2806,VALID,8,VALID,1.00078,
2008-10-17, 03:11:04,VALID,1001.46,VALID,0,VALID,82.8649,VALID,0,VALID,25.2416,VALID,9,VALID,0.755469,
2008-10-17, 03:12:04,VALID,1001.44,VALID,0,VALID,82.7352,VALID,0,VALID,25.2007,VALID,5,VALID,1.57813,
2008-10-17, 03:13:04,VALID,1001.39,VALID,0,VALID,82.2775,VALID,0,VALID,25.2416,VALID,22,VALID,1.60508,
2008-10-17, 03:14:04,VALID,1001.41,VALID,0,VALID,82.4072,VALID,0,VALID,25.2202,VALID,358,VALID,1.18672,
2008-10-17, 03:15:04,VALID,1001.39,VALID,0,VALID,82.4835,VALID,0,VALID,25.2221,VALID,360,VALID,1.1832,
2008-10-17, 03:16:04,VALID,1001.4,VALID,0,VALID,82.8268,VALID,0,VALID,25.2027,VALID,36,VALID,1.42188,
2008-10-17, 03:17:04,VALID,1001.43,VALID,0,VALID,83.2006,VALID,0.100563,VALID,25.1813,VALID,29,VALID,1.34687,
2008-10-17, 03:18:04,VALID,1001.45,VALID,0,VALID,83.1548,VALID,0,VALID,25.1832,VALID,51,VALID,1.70742,
2008-10-17, 03:19:04,VALID,1001.45,VALID,0,VALID,83.5668,VALID,0,VALID,25.2027,VALID,21,VALID,1.07461,
2008-10-17, 03:20:04,VALID,1001.48,VALID,0,VALID,83.376,VALID,0,VALID,25.1851,VALID,24,VALID,1.79961,
2008-10-17, 03:21:04,VALID,1001.47,VALID,0,VALID,83.3531,VALID,0,VALID,25.1637,VALID,341,VALID,0.872266,
2008-10-17, 03:22:04,VALID,1001.51,VALID,0,VALID,83.5973,VALID,0,VALID,25.1442,VALID,81,VALID,0.608203,
2008-10-17, 03:23:04,VALID,1001.52,VALID,0,VALID,83.2997,VALID,0,VALID,25.1248,VALID,51,VALID,1.03086,
2008-10-17, 03:24:04,VALID,1001.53,VALID,0,VALID,83.4981,VALID,0,VALID,25.1442,VALID,16,VALID,0.990234,
2008-10-17, 03:25:04,VALID,1001.56,VALID,0,VALID,83.6964,VALID,0,VALID,25.1637,VALID,28,VALID,0.559375,
2008-10-17, 03:26:04,VALID,1001.58,VALID,0,VALID,83.9101,VALID,0,VALID,25.1442,VALID,24,VALID,0.763672,
2008-10-17, 03:27:04,VALID,1001.61,VALID,0,VALID,83.9787,VALID,0.100563,VALID,25.1248,VALID,57,VALID,0.389453,
2008-10-17, 03:28:04,VALID,1001.61,VALID,0,VALID,84.1542,VALID,0,VALID,25.1053,VALID,64,VALID,0.389844,
2008-10-17, 03:29:04,VALID,1001.65,VALID,0,VALID,84.1466,VALID,0,VALID,25.1053,VALID,86,VALID,1.40781,
2008-10-17, 03:30:04,VALID,1001.65,VALID,0,VALID,84.383,VALID,0.100563,VALID,25.1053,VALID,19,VALID,1.24297,
2008-10-17, 03:31:04,VALID,1001.67,VALID,0,VALID,84.2839,VALID,0,VALID,25.0858,VALID,69,VALID,0.714453,
2008-10-17, 03:32:04,VALID,1001.67,VALID,0,VALID,84.2381,VALID,0,VALID,25.1072,VALID,65,VALID,0.612109,
2008-10-17, 03:33:04,VALID,1001.68,VALID,0,VALID,84.4746,VALID,0,VALID,25.0663,VALID,37,VALID,0.929688,
2008-10-17, 03:34:04,VALID,1001.66,VALID,0,VALID,84.8026,VALID,0.100563,VALID,24.9885,VALID,70,VALID,0.619531,
2008-10-17, 03:35:04,VALID,1001.66,VALID,0,VALID,85.2604,VALID,0.100563,VALID,24.9495,VALID,24,VALID,1.89336,
2008-10-17, 03:36:04,VALID,1001.65,VALID,0,VALID,85.4511,VALID,0,VALID,24.9885,VALID,103,VALID,0.489062,
2008-10-17, 03:37:04,VALID,1001.66,VALID,0,VALID,85.4816,VALID,0,VALID,24.969,VALID,34,VALID,0.689844,
2008-10-17, 03:38:04,VALID,1001.66,VALID,0,VALID,85.7257,VALID,0.100563,VALID,24.9087,VALID,32,VALID,0.461719,
2008-10-17, 03:39:04,VALID,1001.66,VALID,0,VALID,85.8859,VALID,0,VALID,24.9125,VALID,33,VALID,0.839063,
2008-10-17, 03:40:04,VALID,1001.66,VALID,0,VALID,86.069,VALID,0,VALID,24.8735,VALID,51,VALID,0.870703,
2008-10-17, 03:41:04,VALID,1001.64,VALID,0,VALID,86.1377,VALID,0,VALID,24.854,VALID,72,VALID,0.636719,
2008-10-17, 03:42:04,VALID,1001.63,VALID,0,VALID,86.1911,VALID,0,VALID,24.8346,VALID,17,VALID,0.417969,
2008-10-17, 03:43:04,VALID,1001.64,VALID,0,VALID,86.2979,VALID,0,VALID,24.8151,VALID,23,VALID,1.27109,
2008-10-17, 03:44:04,VALID,1001.63,VALID,0,VALID,86.3589,VALID,0,VALID,24.8559,VALID,32,VALID,0.696094,
2008-10-17, 03:45:04,VALID,1001.62,VALID,0,VALID,86.3894,VALID,0,VALID,24.8346,VALID,41,VALID,0.418359,
2008-10-17, 03:46:04,VALID,1001.64,VALID,0,VALID,86.6031,VALID,0,VALID,24.8151,VALID,34,VALID,0.297656,